Location: Newark
(44.6028°N, 124.0883°W)
Time: 18:20:06
(UTC+00:00)

Vanguard 1 - Pass Details

Date: 30 October 2019
Orbit: 652 x 3831 km, 34.2° (Epoch: 21 November)

Event Time Altitude Azimuth Distance (km) Brightness Sun altitude
Rises 03:57:44 0° 262° (W) 3,739 14.1 -30.4°
Reaches altitude 10° 04:00:03 10° 254° (WSW) 3,044 13.3 -30.8°
Maximum altitude 04:07:05 40° 187° (S) 2,266 11.7 -32.0°
Enters shadow 04:09:09 37° 163° (SSE) 2,567 11.8 -32.4°
Drops below altitude 10° 04:19:15 10° 125° (SE) 5,240 - -34.1°
Sets 04:24:45 0° 119° (ESE) 6,771 - -35.1°
